Tracking 19177 objects as of 24-May-2018
HD Live streaming from Space Station
objects crossing your sky now

NOAA 16 DEB

Track NOAA 16 DEB now!
10-day predictions


NORAD ID: 41344
Int'l Code: 2000-055HM
Perigee: 810.7 km
Apogee: 857.7 km
Inclination: 99.0 °
Period: 101.4 minutes
Semi major axis: 7205 km
RCS: Unknown
Launch date: September 21, 2000
Source: United States (US)
Launch site: AIR FORCE WESTERN TEST RANGE (AFWTR)

Note: This is SATELLITE DEBRIS
aabbcc
Your satellite tracking list
Your tracking list is empty




NASA's NSSDC Master Catalog

Two Line Element Set (TLE):
1 41344U 00055HM  18143.08740644 +.00000849 +00000-0 +42251-3 0  9994
2 41344 099.0106 240.2690 0032615 028.8234 331.4734 14.19490103120055
Source of the keplerian elements: AFSPC